Voreifelwetter - Wetterstation Drove - Standort 5043'47" - 0630'49"
Wetterdaten: aktuell Donnerstag, 18.07.2019 16:45
Datum Zeit Temp. A. Feuchte A. Luftdruck Regen Wind Richtung Richtung Sonnenschein Helligkeit Taupunkt Windchill
18.07.2019 16:45 25,3 C 44 % 1008,5 hPa 0,0 mm 17,1 km/h (3 Bft) W-SW67.5 245 0 min 25,2 klux 12,2 C 25,3 C
18.07.2019 16:30 25,6 C 45 % 1008,5 hPa 0,0 mm 20,5 km/h (4 Bft) NW45 315 0 min 30,5 klux 12,8 C 25,6 C
18.07.2019 16:15 25,2 C 45 % 1008,5 hPa 0,0 mm 19,3 km/h (3 Bft) NW45 305 0 min 27,9 klux 12,4 C 25,2 C
18.07.2019 16:00 25,1 C 44 % 1008,6 hPa 0,0 mm 27,3 km/h (4 Bft) NW67.5 310 0 min 22,4 klux 12,0 C 25,1 C
18.07.2019 15:45 25,6 C 44 % 1008,5 hPa 0,0 mm 22,6 km/h (4 Bft) NW45 310 0 min 33,7 klux 12,4 C 25,6 C
18.07.2019 15:30 25,8 C 47 % 1008,5 hPa 0,0 mm 17,6 km/h (3 Bft) N-NW45 330 0 min 32,1 klux 13,6 C 25,8 C
18.07.2019 15:15 26,0 C 46 % 1008,5 hPa 0,0 mm 25,6 km/h (4 Bft) NW22.5 325 0 min 32,4 klux 13,5 C 26,0 C
18.07.2019 15:00 26,0 C 47 % 1008,5 hPa 0,0 mm 27,3 km/h (4 Bft) N-NW45 330 0 min 63,8 klux 13,8 C 26,0 C
18.07.2019 14:45 25,7 C 49 % 1008,5 hPa 0,0 mm 21,3 km/h (4 Bft) NW22.5 325 15 min 67,9 klux 14,2 C 25,7 C
18.07.2019 14:30 24,2 C 56 % 1008,6 hPa 0,1 mm 14,1 km/h (3 Bft) NW22.5 320 0 min 40,8 klux 14,9 C 24,2 C
18.07.2019 14:15 23,6 C 61 % 1008,7 hPa 0,0 mm 26,3 km/h (4 Bft) NW22.5 325 0 min 38,9 klux 15,6 C 23,6 C
18.07.2019 14:00 25,2 C 45 % 1008,5 hPa 0,0 mm 30,6 km/h (5 Bft) NW45 315 0 min 13,0 klux 12,4 C 25,2 C
18.07.2019 13:45 26,8 C 41 % 1008,4 hPa 0,0 mm 29,3 km/h (5 Bft) NW22.5 315 15 min 77,1 klux 12,4 C 26,8 C
18.07.2019 13:30 28,2 C 38 % 1008,3 hPa 0,0 mm 21,7 km/h (4 Bft) NW67.5 310 15 min 90,7 klux 12,5 C 28,2 C
18.07.2019 13:15 27,7 C 40 % 1008,4 hPa 0,0 mm 25,2 km/h (4 Bft) NW22.5 325 15 min 93,6 klux 12,9 C 27,7 C
18.07.2019 13:00 27,4 C 40 % 1008,4 hPa 0,0 mm 28,0 km/h (4 Bft) NW45 315 15 min 93,0 klux 12,6 C 27,4 C
18.07.2019 12:45 27,0 C 40 % 1008,4 hPa 0,0 mm 21,8 km/h (4 Bft) NW45 315 15 min 96,4 klux 12,2 C 27,0 C
18.07.2019 12:30 27,8 C 39 % 1008,4 hPa 0,0 mm 28,5 km/h (4 Bft) N-NW45 330 15 min 94,6 klux 12,6 C 27,8 C
18.07.2019 12:15 26,3 C 41 % 1008,5 hPa 0,0 mm 23,6 km/h (4 Bft) NW45 315 15 min 87,8 klux 12,0 C 26,3 C
18.07.2019 12:00 27,5 C 41 % 1008,4 hPa 0,0 mm 24,1 km/h (4 Bft) NW45 320 15 min 85,1 klux 13,1 C 27,5 C
18.07.2019 11:45 26,8 C 40 % 1008,4 hPa 0,0 mm 21,6 km/h (4 Bft) NW22.5 315 15 min 82,0 klux 12,1 C 26,8 C
18.07.2019 11:30 25,4 C 44 % 1008,5 hPa 0,0 mm 25,9 km/h (4 Bft) NW22.5 310 15 min 71,5 klux 12,2 C 25,4 C
18.07.2019 11:15 24,6 C 45 % 1008,6 hPa 0,0 mm 10,0 km/h (2 Bft) O 80 15 min 76,5 klux 11,9 C 24,6 C
18.07.2019 11:00 23,9 C 49 % 1008,6 hPa 0,0 mm 9,6 km/h (2 Bft) N-NW45 345 15 min 79,9 klux 12,5 C 23,9 C
18.07.2019 10:45 23,9 C 49 % 1008,6 hPa 0,0 mm 9,0 km/h (2 Bft) N-NW67.5 340 15 min 80,0 klux 12,5 C 23,9 C
18.07.2019 10:30 23,3 C 51 % 1008,7 hPa 0,0 mm 11,0 km/h (2 Bft) NW45 320 15 min 62,3 klux 12,6 C 23,3 C
18.07.2019 10:15 24,4 C 49 % 1008,6 hPa 0,0 mm 13,2 km/h (3 Bft) N-NW45 335 15 min 63,7 klux 13,0 C 24,4 C
18.07.2019 10:00 23,2 C 51 % 1008,7 hPa 0,0 mm 7,6 km/h (2 Bft) S45 170 0 min 40,8 klux 12,5 C 23,2 C
18.07.2019 09:45 22,6 C 52 % 1008,7 hPa 0,0 mm 7,0 km/h (2 Bft) S67.5 185 15 min 60,2 klux 12,2 C 22,6 C
18.07.2019 09:30 22,0 C 53 % 1008,8 hPa 0,0 mm 11,0 km/h (2 Bft) SW45 215 0 min 29,2 klux 12,0 C 22,0 C
18.07.2019 09:15 22,0 C 52 % 1008,8 hPa 0,0 mm 9,9 km/h (2 Bft) S67.5 170 15 min 54,8 klux 11,7 C 22,0 C
18.07.2019 09:00 20,7 C 59 % 1008,9 hPa 0,0 mm 12,3 km/h (3 Bft) S-SO67.5 165 15 min 47,0 klux 12,4 C 20,7 C
18.07.2019 08:45 19,3 C 64 % 1009,0 hPa 0,0 mm 6,4 km/h (2 Bft) S67.5 180 15 min 37,6 klux 12,3 C 19,3 C
18.07.2019 08:30 18,0 C 69 % 1009,1 hPa 0,0 mm 1,0 km/h (0 Bft) S-SO22.5 160 15 min 32,8 klux 12,2 C 18,0 C
18.07.2019 08:15 16,8 C 76 % 1009,1 hPa 0,0 mm 0,3 km/h (0 Bft) SO22.5 130 0 min 14,8 klux 12,5 C 16,8 C
18.07.2019 08:00 16,8 C 77 % 1009,1 hPa 0,0 mm 0,0 km/h (0 Bft) S22.5 175 0 min 20,7 klux 12,7 C 16,8 C
18.07.2019 07:45 16,0 C 78 % 1009,2 hPa 0,0 mm 0,0 km/h (0 Bft) S22.5 190 0 min 18,5 klux 12,2 C 16,0 C
18.07.2019 07:30 15,6 C 80 % 1009,2 hPa 0,0 mm 0,4 km/h (0 Bft) S45 170 0 min 10,6 klux 12,2 C 15,6 C
18.07.2019 07:15 15,2 C 82 % 1010,3 hPa 0,0 mm 0,2 km/h (0 Bft) O-SO45 120 0 min 9,4 klux 12,1 C 15,2 C
18.07.2019 07:00 14,5 C 82 % 1009,3 hPa 0,0 mm 0,6 km/h (0 Bft) S22.5 185 0 min 7,03 klux 11,5 C 14,5 C
18.07.2019 06:45 14,2 C 84 % 1009,3 hPa 0,0 mm 7,4 km/h (2 Bft) S-SO45 150 0 min 4,87 klux 11,5 C 14,2 C
18.07.2019 06:30 13,6 C 86 % 1010,4 hPa 0,0 mm 0,0 km/h (0 Bft) S-SO22.5 155 0 min 3,20 klux 11,3 C 13,6 C
18.07.2019 06:15 13,3 C 87 % 1010,4 hPa 0,0 mm 0,0 km/h (0 Bft) O-SO22.5 120 0 min 1,69 klux 11,2 C 13,3 C
18.07.2019 06:00 13,0 C 88 % 1010,4 hPa 0,0 mm 0,4 km/h (0 Bft) S-SO45 150 0 min 820 lux 11,1 C 13,0 C
18.07.2019 05:45 12,8 C 88 % 1010,5 hPa 0,0 mm 6,7 km/h (2 Bft) S-SW22.5 205 0 min 267 lux 10,9 C 12,8 C
18.07.2019 05:30 12,7 C 88 % 1010,5 hPa 0,0 mm 0,0 km/h (0 Bft) S 190 0 min 78 lux 10,8 C 12,7 C
18.07.2019 05:15 12,4 C 88 % 1010,5 hPa 0,0 mm 0,0 km/h (0 Bft) S-SW 200 0 min 0 lux 10,5 C 12,4 C
18.07.2019 05:00 12,4 C 88 % 1010,5 hPa 0,0 mm 0,0 km/h (0 Bft) S-SO 155 0 min 0 lux 10,5 C 12,4 C
18.07.2019 04:45 12,5 C 88 % 1010,5 hPa 0,0 mm 0,0 km/h (0 Bft) S 185 0 min 0 lux 10,6 C 12,5 C
18.07.2019 04:30 12,4 C 88 % 1010,5 hPa 0,0 mm 0,0 km/h (0 Bft) W-SW 255 0 min 0 lux 10,5 C 12,4 C
18.07.2019 04:15 12,6 C 88 % 1010,5 hPa 0,0 mm 0,1 km/h (0 Bft) SW22.5 215 0 min 0 lux 10,7 C 12,6 C
18.07.2019 04:00 12,6 C 88 % 1010,5 hPa 0,0 mm 0,0 km/h (0 Bft) SO 135 0 min 0 lux 10,7 C 12,6 C
18.07.2019 03:45 12,6 C 88 % 1010,5 hPa 0,0 mm 0,0 km/h (0 Bft) SO 130 0 min 0 lux 10,7 C 12,6 C
18.07.2019 03:30 12,6 C 89 % 1010,5 hPa 0,0 mm 0,0 km/h (0 Bft) SO 130 0 min 0 lux 10,8 C 12,6 C
18.07.2019 03:15 12,4 C 89 % 1011,5 hPa 0,0 mm 0,1 km/h (0 Bft) SO22.5 135 0 min 0 lux 10,6 C 12,4 C
18.07.2019 03:00 12,2 C 88 % 1011,5 hPa 0,0 mm 0,0 km/h (0 Bft) S22.5 185 0 min 0 lux 10,3 C 12,2 C
18.07.2019 02:45 12,2 C 88 % 1010,5 hPa 0,0 mm 0,0 km/h (0 Bft) S 180 0 min 0 lux 10,3 C 12,2 C
18.07.2019 02:30 12,1 C 88 % 1011,5 hPa 0,0 mm 0,0 km/h (0 Bft) S 180 0 min 0 lux 10,2 C 12,1 C
18.07.2019 02:15 12,0 C 87 % 1011,5 hPa 0,0 mm 0,0 km/h (0 Bft) S 180 0 min 0 lux 9,9 C 12,0 C
18.07.2019 02:00 12,0 C 87 % 1011,5 hPa 0,0 mm 0,0 km/h (0 Bft) S 180 0 min 0 lux 9,9 C 12,0 C
18.07.2019 01:45 11,9 C 87 % 1011,6 hPa 0,0 mm 0,0 km/h (0 Bft) S 180 0 min 0 lux 9,8 C 11,9 C
18.07.2019 01:30 11,8 C 86 % 1011,6 hPa 0,0 mm 0,0 km/h (0 Bft) S 180 0 min 0 lux 9,5 C 11,8 C
18.07.2019 01:15 11,7 C 85 % 1011,6 hPa 0,0 mm 0,0 km/h (0 Bft) S-SW 200 0 min 0 lux 9,3 C 11,7 C
18.07.2019 01:00 11,7 C 85 % 1011,6 hPa 0,0 mm 0,0 km/h (0 Bft) S-SW 200 0 min 0 lux 9,3 C 11,7 C
18.07.2019 00:45 12,0 C 84 % 1011,5 hPa 0,0 mm 0,0 km/h (0 Bft) S-SW 200 0 min 0 lux 9,4 C 12,0 C
18.07.2019 00:30 12,2 C 83 % 1011,5 hPa 0,0 mm 0,0 km/h (0 Bft) S-SW 200 0 min 0 lux 9,4 C 12,2 C
18.07.2019 00:15 12,6 C 82 % 1011,5 hPa 0,0 mm 0,0 km/h (0 Bft) S-SW 200 0 min 0 lux 9,6 C 12,6 C
18.07.2019 00:00 12,9 C 81 % 1011,5 hPa 0,0 mm 0,0 km/h (0 Bft) S-SW 200 0 min 0 lux 9,7 C 12,9 C
_ Min-Zeit 01:00 13:30 13:30 - 00:00 - - - - 01:00 01:00
Minimum _ 11,7 C 38 % 1008,3 hPa - 0,0 km/h (0 Bft) - - - - 9,3 C 11,7 C
_ Max-Zeit 13:30 03:15 01:00 14:30 14:00 - - 08:30 12:45 14:15 13:30
Maximum _ 28,2 C 89 % 1011,6 hPa 0,1 mm 30,6 km/h
NW (5 Bft)
- - 15 min 96,4 klux 15,6 C 28,2 C
Durchschnitt _ 18,9 C 66 % 1009,6 hPa #0,1 mm 9,5 km/h (2 Bft) NW - #5:15 h 30,3 klux 11,7 C 18,9 C